When you browse on this site, cookies collect data to enhance your experience and personalize the content and advertising you see.
Visit our Privacy Policy to learn more. By continuing to use the site, you agree to this use of cookies and data.
  • In Romania
  • List of Countries
  • For 7 days
  • Water Temperature
  • Satellite Maps
  • Weather Map
  • Weather Widgets
  • user-avatar
    Login

    Hourly Weather My Tho

    Today, 25 March, Monday

    Time Temperature Precipitation Wind Pressure Humidity
    00:00 +29°C° 0 mm 3 mps 757 mmHg 73%
    01:00 +29°C° 0 mm 2 mps 757 mmHg 74%
    02:00 +29°C° 0 mm 2 mps 757 mmHg 75%
    03:00 +29°C° 0 mm 2 mps 757 mmHg 76%
    04:00 +29°C° 0 mm 2 mps 757 mmHg 77%
    05:00 +29°C° 0 mm 3 mps 757 mmHg 74%
    06:00 +29°C° 0 mm 3 mps 758 mmHg 72%
    07:00 +30°C° 0 mm 4 mps 758 mmHg 68%
    08:00 +33°C° 0 mm 5 mps 758 mmHg 61%
    09:00 +34°C° 0 mm 5 mps 758 mmHg 54%
    10:00 +36°C° 0 mm 5 mps 759 mmHg 48%
    11:00 +37°C° 0 mm 5 mps 758 mmHg 44%
    12:00 +37°C° 0 mm 5 mps 758 mmHg 41%
    13:00 +39°C° 0 mm 5 mps 757 mmHg 38%
    14:00 +39°C° 0 mm 5 mps 757 mmHg 40%
    15:00 +37°C° 0 mm 5 mps 757 mmHg 42%
    16:00 +36°C° 0 mm 5 mps 756 mmHg 44%
    17:00 +34°C° 0 mm 5 mps 756 mmHg 52%
    18:00 +33°C° 0 mm 4 mps 756 mmHg 59%
    19:00 +30°C° 0 mm 4 mps 757 mmHg 67%
    20:00 +30°C° 0 mm 4 mps 757 mmHg 68%
    21:00 +30°C° 0 mm 4 mps 758 mmHg 70%
    22:00 +30°C° 0 mm 4 mps 758 mmHg 71%
    23:00 +30°C° 0 mm 4 mps 758 mmHg 72%

    Tomorrow, 26 March, Tuesday

    Time Temperature Precipitation Wind Pressure Humidity
    00:00 +30°C° 0 mm 4 mps 758 mmHg 72%
    01:00 +29°C° 0 mm 4 mps 758 mmHg 73%
    02:00 +29°C° 0 mm 4 mps 758 mmHg 73%
    03:00 +29°C° 0 mm 3 mps 758 mmHg 74%
    04:00 +29°C° 0 mm 3 mps 757 mmHg 74%
    05:00 +29°C° 0 mm 4 mps 758 mmHg 72%
    06:00 +30°C° 0 mm 4 mps 758 mmHg 70%
    07:00 +30°C° 0 mm 4 mps 758 mmHg 68%
    08:00 +33°C° 0 mm 5 mps 758 mmHg 60%
    09:00 +35°C° 0 mm 5 mps 759 mmHg 51%
    10:00 +36°C° 0 mm 5 mps 759 mmHg 42%
    11:00 +37°C° 0 mm 5 mps 758 mmHg 38%
    12:00 +39°C° 0 mm 5 mps 758 mmHg 33%
    13:00 +40°C° 0 mm 5 mps 758 mmHg 28%
    14:00 +39°C° 0 mm 6 mps 757 mmHg 31%
    15:00 +39°C° 0 mm 6 mps 757 mmHg 33%
    16:00 +38°C° 0 mm 6 mps 756 mmHg 35%
    17:00 +35°C° 0 mm 5 mps 756 mmHg 42%
    18:00 +33°C° 0 mm 5 mps 757 mmHg 50%
    19:00 +30°C° 0 mm 4 mps 757 mmHg 57%
    20:00 +30°C° 0 mm 4 mps 758 mmHg 60%
    21:00 +30°C° 0 mm 5 mps 759 mmHg 62%
    22:00 +30°C° 0 mm 5 mps 759 mmHg 65%
    23:00 +30°C° 0 mm 5 mps 759 mmHg 67%

    Day after tomorrow, 27 March, Wednesday

    Time Temperature Precipitation Wind Pressure Humidity
    00:00 +30°C° 0 mm 5 mps 759 mmHg 69%
    01:00 +30°C° 0 mm 4 mps 758 mmHg 71%
    02:00 +29°C° 0 mm 4 mps 758 mmHg 71%
    03:00 +29°C° 0 mm 4 mps 757 mmHg 72%
    04:00 +29°C° 0 mm 4 mps 757 mmHg 73%
    05:00 +29°C° 0 mm 4 mps 758 mmHg 71%
    06:00 +30°C° 0 mm 4 mps 758 mmHg 70%
    07:00 +30°C° 0 mm 4 mps 758 mmHg 68%
    08:00 +33°C° 0 mm 5 mps 759 mmHg 60%
    09:00 +34°C° 0 mm 5 mps 759 mmHg 51%
    10:00 +36°C° 0 mm 5 mps 760 mmHg 43%
    11:00 +37°C° 0 mm 5 mps 759 mmHg 40%
    12:00 +39°C° 0 mm 5 mps 758 mmHg 38%
    13:00 +40°C° 0 mm 5 mps 757 mmHg 35%
    14:00 +39°C° 0 mm 5 mps 757 mmHg 38%
    15:00 +37°C° 0 mm 5 mps 756 mmHg 42%
    16:00 +36°C° 0 mm 5 mps 755 mmHg 45%
    17:00 +35°C° 0 mm 4 mps 756 mmHg 54%
    18:00 +33°C° 0 mm 4 mps 756 mmHg 62%
    19:00 +30°C° 0 mm 3 mps 757 mmHg 71%
    20:00 +30°C° 0 mm 3 mps 757 mmHg 73%
    21:00 +30°C° 0 mm 3 mps 758 mmHg 74%
    22:00 +30°C° 0 mm 3 mps 759 mmHg 76%
    23:00 +30°C° 0 mm 3 mps 758 mmHg 76%

    28 March, Thursday

    Time Temperature Precipitation Wind Pressure Humidity
    00:00 +29°C° 0 mm 3 mps 758 mmHg 76%
    01:00 +29°C° 0 mm 3 mps 758 mmHg 76%
    02:00 +29°C° 0 mm 3 mps 758 mmHg 78%
    03:00 +29°C° 0 mm 2 mps 757 mmHg 80%
    04:00 +28°C° 0 mm 1 mps 757 mmHg 81%
    05:00 +29°C° 0 mm 2 mps 757 mmHg 80%
    06:00 +29°C° 0 mm 2 mps 758 mmHg 78%
    07:00 +30°C° 0 mm 2 mps 758 mmHg 77%
    08:00 +31°C° 0 mm 2 mps 759 mmHg 69%
    09:00 +34°C° 0 mm 2 mps 759 mmHg 62%
    10:00 +35°C° 0 mm 3 mps 759 mmHg 55%
    11:00 +36°C° 0.1 mm 3 mps 758 mmHg 51%
    12:00 +37°C° 0.1 mm 3 mps 757 mmHg 47%
    13:00 +38°C° 0.1 mm 3 mps 757 mmHg 44%
    14:00 +37°C° 0.1 mm 3 mps 756 mmHg 46%
    15:00 +37°C° 0.1 mm 3 mps 756 mmHg 48%
    16:00 +36°C° 0.1 mm 3 mps 755 mmHg 50%
    17:00 +35°C° 0 mm 3 mps 756 mmHg 56%
    18:00 +33°C° 0 mm 3 mps 756 mmHg 62%
    19:00 +31°C° 0 mm 3 mps 757 mmHg 68%
    20:00 +30°C° 0 mm 2 mps 757 mmHg 71%
    21:00 +30°C° 0 mm 2 mps 758 mmHg 74%
    22:00 +29°C° 0 mm 2 mps 758 mmHg 77%
    23:00 +29°C° 0 mm 2 mps 758 mmHg 78%

    29 March, Friday

    Time Temperature Precipitation Wind Pressure Humidity
    00:00 +29°C° 0 mm 1 mps 757 mmHg 78%
    01:00 +29°C° 0 mm 1 mps 757 mmHg 79%
    02:00 +29°C° 0 mm 1 mps 757 mmHg 80%
    03:00 +27°C° 0 mm 0 mps 756 mmHg 81%
    04:00 +26°C° 0 mm 0 mps 756 mmHg 81%
    05:00 +27°C° 0 mm 0 mps 756 mmHg 80%
    06:00 +27°C° 0 mm 0 mps 757 mmHg 78%
    07:00 +28°C° 0 mm 0 mps 757 mmHg 76%
    08:00 +30°C° 0 mm 0 mps 757 mmHg 65%
    09:00 +35°C° 0 mm 1 mps 758 mmHg 53%
    10:00 +37°C° 0 mm 1 mps 758 mmHg 42%
    11:00 +37°C° 0.1 mm 1 mps 757 mmHg 44%
    12:00 +36°C° 0.1 mm 1 mps 757 mmHg 45%
    13:00 +36°C° 0.1 mm 2 mps 756 mmHg 47%
    14:00 +37°C° 0.5 mm 2 mps 756 mmHg 47%
    15:00 +37°C° 0.5 mm 2 mps 755 mmHg 47%
    16:00 +37°C° 0.5 mm 2 mps 755 mmHg 48%
    17:00 +36°C° 0.2 mm 3 mps 755 mmHg 53%
    18:00 +34°C° 0.2 mm 3 mps 756 mmHg 59%
    19:00 +31°C° 0.2 mm 3 mps 756 mmHg 65%
    20:00 +31°C° 0 mm 2 mps 757 mmHg 69%
    21:00 +30°C° 0 mm 2 mps 757 mmHg 72%
    22:00 +29°C° 0 mm 2 mps 758 mmHg 75%
    23:00 +29°C° 0 mm 2 mps 758 mmHg 77%

    30 March, Saturday

    Time Temperature Precipitation Wind Pressure Humidity
    00:00 +29°C° 0 mm 1 mps 757 mmHg 79%
    01:00 +28°C° 0 mm 1 mps 757 mmHg 80%
    02:00 +26°C° 0 mm 0 mps 757 mmHg 82%
    03:00 +26°C° 0 mm 0 mps 757 mmHg 83%
    04:00 +26°C° 0 mm 0 mps 757 mmHg 85%
    05:00 +26°C° 0 mm 0 mps 757 mmHg 83%
    06:00 +27°C° 0 mm 0 mps 757 mmHg 81%
    07:00 +28°C° 0 mm 0 mps 758 mmHg 78%
    08:00 +30°C° 0 mm 0 mps 758 mmHg 67%
    09:00 +33°C° 0 mm 0 mps 758 mmHg 56%
    10:00 +39°C° 0 mm 1 mps 758 mmHg 44%
    11:00 +39°C° 0 mm 1 mps 758 mmHg 43%
    12:00 +39°C° 0 mm 1 mps 757 mmHg 42%
    13:00 +39°C° 0 mm 1 mps 756 mmHg 40%
    14:00 +39°C° 0 mm 1 mps 756 mmHg 42%
    15:00 +38°C° 0 mm 2 mps 755 mmHg 43%
    16:00 +38°C° 0 mm 2 mps 755 mmHg 44%
    17:00 +36°C° 0.7 mm 2 mps 756 mmHg 52%
    18:00 +34°C° 0.7 mm 2 mps 756 mmHg 60%
    19:00 +31°C° 0.7 mm 2 mps 756 mmHg 67%
    20:00 +31°C° 3.4 mm 2 mps 757 mmHg 72%
    21:00 +30°C° 3.4 mm 2 mps 757 mmHg 76%
    22:00 +29°C° 3.4 mm 1 mps 758 mmHg 81%
    23:00 +29°C° 2.6 mm 1 mps 758 mmHg 82%
    Show more